Regional Weather Roundup
Issued by NWS

Home | Current Version | Previous Version | Graphics & Text | Print | Product List | Glossary On
Versions: 1 2 3 4 5 6 7 8 9 10 11 12 13 14 15 16 17 18 19 20 21 22 23 24 25 26 27 28 29 30 31 32 33 34 35 36 37 38 39 40 41 42 43 44 45 46 47 48 49 50
000
ASUS43 KFSD 220510
RWRSD

WEATHER ROUNDUP FOR SOUTH DAKOTA
NATIONAL WEATHER SERVICE SIOUX FALLS SD
1200 AM CDT TUE MAY 22 2018

NOTE: "FAIR" INDICATES FEW OR NO CLOUDS BELOW 12,000 FEET WITH NO
SIGNIFICANT WEATHER AND/OR OBSTRUCTIONS TO VISIBILITY.


SDZ001>005-009-010-012>017-220600-
NORTHWEST AND NORTH CENTRAL SOUTH DAKOTA

CITY           SKY/WX    TMP DP  RH WIND       PRES   REMARKS
BUFFALO          N/A     60  49  66 E9        29.86S
FAITH            N/A     58  47  66 SE13      29.93R
MOBRIDGE       CLEAR     53  46  77 CALM      29.90S
$$

SDZ012>016-024>037-041>051-057-063-072>074-220600-
SOUTHWEST AND SOUTH CENTRAL SOUTH DAKOTA

CITY           SKY/WX    TMP DP  RH WIND       PRES   REMARKS
RAPID CTY ARPT CLOUDY    56  51  84 CALM      29.92F
PIERRE         CLEAR     58  52  80 E7        29.91S
CUSTER         CLOUDY    55  47  74 SW3       30.05F
ELLSWORTH AFB  CLEAR     62  53  70 CALM      29.92
PHILIP         CLEAR     57  54  89 E9        29.90F
PINE RIDGE     MOCLDY    64  54  69 VRB3      29.95S
SPEARFISH      FAIR      64  46  52 CALM      29.94S
WINNER         FAIR      62  54  74 SE9       29.94S
$$

SDZ004>011-016>023-039-040-220600-
NORTHEAST SOUTH DAKOTA

CITY           SKY/WX    TMP DP  RH WIND       PRES   REMARKS
ABERDEEN       CLEAR     56  54  93 SE6       29.96S
WATERTOWN      FOG       55  55 100 CALM      29.97F VSB 1
BROOKINGS      CLEAR     56  54  93 SE7       29.99S FOG
SISSETON         N/A     58  56  93 S7        29.97S
$$

SDZ017-020-022-023-036>040-048>070-220600-
SOUTHEAST SOUTH DAKOTA

CITY           SKY/WX    TMP DP  RH WIND       PRES   REMARKS
SIOUX FALLS    CLEAR     57  56  96 SE6       29.99S
HURON          CLEAR     58  54  86 SE7       29.95S
CHAMBERLAIN    CLEAR     60  56  87 SE7       29.95R
MITCHELL       CLEAR     59  56  89 SE7       29.97R
YANKTON        CLEAR     60  57  89 E5        29.98S
$$

ABBREVIATIONS USED IN REMARKS
   TC - TEMPERATURE IN CELSIUS
  WCI - WIND CHILL INDEX
   HX - HEAT INDEX
  VSB - VISIBILITY





USA.gov is the U.S. government's official web portal to all federal, state and local government web resources and services.